Location: Recife
(8.0585°S, 34.8848°W)
Time: 10:24:33
(UTC-03:00)

Transit 2A - Pass Details

Date: 22 April 2026
Orbit: 594 x 950 km, 66.7° (Epoch: 14 May)

Event Time Altitude Azimuth Distance (km) Brightness Sun altitude
Rises 08:22:49 0° 300° (WNW) 2,861 8.7 41.9°
Reaches altitude 10° 08:26:39 10° 266° (W) 1,931 7.8 42.8°
Maximum altitude 08:28:03 11° 247° (WSW) 1,839 7.7 43.1°
Drops below altitude 10° 08:29:26 10° 228° (SW) 1,927 7.8 43.4°
Sets 08:33:16 0° 193° (SSW) 2,845 8.7 44.3°
